Location: Gulch Spring
(38.5543°N, 119.2421°W)
Time: 14:58:08
(UTC+00:00)

Daily predictions for brighter satellites

Satellite Brightness Start Highest point End
(mag) Time Altitude Azimuth Time Altitude Azimuth Time Altitude Azimuth
Cosmos 1153 Rocket 4.4 12:14:35 10° N 12:20:46 82° E 12:26:53 10° S
Cosmos 2263 4.5 12:17:00 20° NNW 12:20:54 65° ENE 12:26:28 10° SSE
ALOS 4.3 12:21:32 10° NE 12:25:30 27° E 12:29:26 10° SSE
Cosmos 1727 Rocket 3.8 12:26:32 56° SW 12:27:49 74° W 12:34:00 10° N
Cosmos 2084 4.4 12:37:10 39° N 12:37:10 39° N 12:40:22 10° NNE
Cosmos 1140 Rocket 3.3 12:36:17 69° WSW 12:36:47 75° WNW 12:42:03 10° NNE
CZ-4B R/B 4.1 12:33:42 10° NNE 12:38:09 83° ESE 12:39:21 49° S
ISS -2.1 12:39:54 30° SE 12:39:54 30° SE 12:42:55 10° ENE
H-2A R/B 2.6 12:37:56 10° NNE 12:42:26 85° ESE 12:44:31 32° S
Meteor PRIRODA 4.4 12:40:47 10° NNE 12:44:23 52° E 12:47:19 14° S
Meteor 1-31 Rocket 3.3 12:43:52 10° N 12:46:42 47° N 12:46:42 47° N
Lacrosse 5 2.7 12:48:55 33° SSW 12:48:55 33° SSW 12:52:21 10° S
Cosmos 407 Rocket 4.0 12:48:21 41° NW 12:48:21 41° NW 12:52:47 10° N
Cosmos 1954 Rocket 3.9 12:45:23 24° SSW 12:48:37 87° WNW 12:53:59 10° NNE
Meteor 2-3 Rocket 4.0 12:45:33 10° NNW 12:51:01 45° W 12:56:30 10° SSW
Cosmos 1000 Rocket 4.4 12:45:41 10° S 12:51:50 88° W 12:58:07 10° N
Cosmos 2100 Rocket 3.9 12:48:18 10° N 12:54:31 87° W 13:00:39 10° S
Cosmos 1943 Rocket 3.2 12:56:50 26° SW 12:56:50 26° SW 12:59:47 10° SSW
Cosmos 1459 Rocket 4.0 12:49:11 10° N 12:55:26 88° E 13:01:45 10° S
Sich 1 3.7 12:53:22 10° N 12:57:36 54° E 13:01:50 10° SSE
DELTA 2 R/B (1) 3.5 12:57:09 42° W 12:59:09 88° N 13:04:45 10° E
Atlas Centaur 2 3.9 13:00:03 19° SW 13:05:22 42° SSE 13:13:14 10° E
Cosmos 1805 Rocket 3.4 13:01:37 10° N 13:05:58 83° W 13:10:18 10° S
SKYMED 2 3.7 13:05:31 10° SSE 13:09:50 74° ENE 13:14:10 10° N
CZ-2C R/B 3.3 13:07:38 10° N 13:11:56 28° WNW 13:11:56 28° WNW
Cosmos 1151 Rocket 4.4 13:09:41 10° SSE 13:13:44 42° E 13:17:50 10° NNE
Cosmos 2123 Rocket 4.1 13:09:02 10° S 13:15:21 85° E 13:21:40 10° N
Cosmos 1725 Rocket 4.3 13:09:41 10° N 13:15:58 70° E 13:22:14 10° SSE
Cosmos 1400 Rocket 2.7 13:15:19 10° SSW 13:19:19 75° W 13:23:25 10° N
FENGYUN 3A 3.6 13:14:47 10° NNE 13:20:15 85° WNW 13:25:41 10° SSW
Cosmos 2061 Rocket 3.9 13:16:21 10° N 13:22:36 81° W 13:28:47 10° S
Cosmos 1741 Rocket 4.2 13:19:50 10° S 13:25:03 76° ESE 13:30:20 10° NNE
BREEZE M DEB (TANK) 4.0 13:17:09 13° WNW 13:25:20 34° WSW 13:28:47 10° S
GPS 2-05 Rocket1 2.8 13:26:23 31° SSW 13:26:47 34° S 13:28:56 10° ESE
Cosmos 921 Rocket 3.8 13:26:10 21° WNW 13:27:57 28° W 13:31:37 10° SSW
ERBS 4.3 13:25:05 10° S 13:28:03 29° SE 13:31:01 10° ENE
Cosmos 1340 4.1 13:24:29 10° N 13:28:03 41° ENE 13:31:36 10° SSE
Cosmos 1656 Rocket 3.8 13:23:07 10° NNW 13:28:38 54° WSW 13:34:08 10° S
USA 116 3.9 13:25:44 10° SSE 13:28:46 53° ENE 13:31:49 10° N
CZ-4B R/B 3.6 13:27:35 10° NNW 13:30:34 25° WNW 13:30:57 24° W
Cosmos 1328 Rocket 3.8 13:27:35 10° S 13:32:00 73° E 13:36:27 10° NNE
Cosmos 1864 Rocket 4.4 13:26:45 10° N 13:32:55 84° W 13:39:07 10° S
Cosmos 482 Debris 2.5 13:34:05 50° SW 13:34:05 50° SW 13:35:52 10° SE
SL-08 R/B 4.4 13:28:33 10° N 13:34:40 79° W 13:40:43 10° S
Cosmos 1802 Rocket 4.1 13:29:21 10° NNW 13:35:36 54° W 13:41:47 10° SSW
MOS 1-B 4.3 13:30:42 10° N 13:36:30 77° WNW 13:42:17 10° SSW
Cosmos 2369 Rocket 3.5 13:38:07 16° WNW 13:39:51 19° W 13:43:40 10° SW
GEOS 3 Rocket 3.9 13:34:50 10° NNE 13:39:56 49° NW 13:45:03 10° WSW
USA 267 4.0 13:35:45 10° S 13:41:28 32° SW 13:46:59 11° WNW
Okean O Rocket 1.7 13:40:32 10° NNE 13:44:54 80° E 13:49:14 10° S
Cosmos 1633 3.9 13:44:43 10° NW 13:47:19 19° W 13:49:54 10° SW
Iridium 51 4.1 13:43:38 10° S 13:47:29 88° W 13:51:05 10° N
Cosmos 2016 Rocket 4.2 13:43:30 10° NNW 13:49:32 50° W 13:55:36 10° SSW
Cosmos 1484 Rocket 4.2 13:49:12 10° NNW 13:52:06 20° WNW 13:54:59 10° WSW
Cosmos 1763 Rocket 3.9 13:47:04 10° NNW 13:52:23 69° ENE 13:57:39 10° SSE
NOSS 3-3 (A) 4.4 13:47:13 10° WSW 13:52:43 40° NW 13:58:50 10° NNE
NOSS 3-3 (C) 4.4 13:47:17 10° WSW 13:52:48 41° NW 13:58:57 10° NNE
Cosmos 1515 Rocket 3.7 13:51:54 10° S 13:56:20 82° E 14:00:46 10° N
Cosmos 1633 Rocket 3.2 13:52:51 10° NNW 13:57:08 54° W 14:01:25 10° S
ADEOS Rocket 3.4 13:51:20 10° SSE 13:57:38 85° ENE 14:04:43 10° NNW
COSMO-SKYMED 1 3.3 13:54:09 10° SSW 13:57:58 30° W 14:01:49 10° NW
Cosmos 2228 Rocket 4.3 13:54:00 10° SSE 13:58:12 48° E 14:02:28 10° NNE
Cosmos 1238 Rocket 4.2 13:55:36 10° NNW 14:00:15 29° W 14:04:15 10° SW
ALOS 3.1 13:58:53 10° NNW 14:02:50 28° WNW 14:06:46 10° SW
Cosmos 1666 Rocket 4.1 13:59:40 10° NNW 14:03:42 36° W 14:07:41 10° SSW
Cosmos 1862 4.4 14:00:51 10° NW 14:04:04 24° W 14:07:17 10° SW
Cosmos 1933 Rocket 4.0 13:59:57 10° N 14:04:16 65° E 14:08:33 10° SSE
Cosmos 2233 Rocket 4.0 13:58:46 10° N 14:05:04 76° W 14:11:21 10° S
CZ-4B R/B 3.1 14:00:57 10° N 14:06:13 70° WNW 14:11:28 10° SSW
Shenzhou-11 Module 2.4 14:07:06 10° WNW 14:09:37 43° NNE 14:12:10 10° E
NOAA 6 4.2 14:05:38 10° N 14:10:39 53° WNW 14:15:38 10° SSW
SL-8 R/B 3.7 14:08:15 10° WSW 14:13:03 77° NNW 14:17:53 10° NE
